Location: Montbazon
(47.2835°N, 0.6999°E)
Time: 18:00:16
(UTC+00:00)

SJ 16-02 - Pass Details

Date: 08 November 2025
Orbit: 585 x 594 km, 75.0° (Epoch: 09 December)

Event Time Altitude Azimuth Distance (km) Brightness Sun altitude
Exits shadow 04:26:31 - 355° (N) 2,721 4.6 -24.7°
Reaches altitude 10° 04:29:29 10° 21° (NNE) 1,934 4.1 -24.2°
Maximum altitude 04:31:37 13° 51° (NE) 1,718 4.3 -23.8°
Drops below altitude 10° 04:33:44 10° 80° (E) 1,925 5.0 -23.5°
Sets 04:37:03 0° 108° (ESE) 2,818 6.0 -22.9°
